Time,TemperatureF,DewpointF,PressureIn,WindDirection,WindDirectionDegrees,WindSpeedMPH,WindSpeedGustMPH,Humidity,HourlyPrecipIn,Conditions,Clouds,dailyrainin,SoftwareType,DateUTC
2013-03-23 00:00:00,49.0,36.0,-100.00,NNW,348,7.0,-999.0,59,0.00,,,-99.99,,2013-03-23 07:00:00,
2013-03-23 00:22:00,49.0,36.0,-100.00,NNW,348,7.0,-999.0,59,0.00,,,-99.99,,2013-03-23 07:22:00,
2013-03-23 00:33:00,49.0,36.0,-100.00,NNW,348,7.0,-999.0,59,0.00,,,-99.99,,2013-03-23 07:33:00,
2013-03-23 00:42:00,49.0,36.0,-100.00,NNW,348,7.0,-999.0,59,0.00,,,-99.99,,2013-03-23 07:42:00,
2013-03-23 00:52:00,49.0,36.0,-100.00,NNW,348,7.0,-999.0,59,0.00,,,-99.99,,2013-03-23 07:52:00,
2013-03-23 01:00:00,48.0,36.0,-100.00,NNE,13,6.0,-999.0,61,0.00,,,-99.99,,2013-03-23 08:00:00,
2013-03-23 01:22:00,48.0,36.0,-100.00,NNE,13,6.0,-999.0,61,0.00,,,-99.99,,2013-03-23 08:22:00,
2013-03-23 01:32:00,48.0,36.0,-100.00,NNE,13,6.0,-999.0,61,0.00,,,-99.99,,2013-03-23 08:32:00,
2013-03-23 01:42:00,48.0,36.0,-100.00,NNE,13,6.0,-999.0,61,0.00,,,-99.99,,2013-03-23 08:42:00,
2013-03-23 01:52:00,48.0,36.0,-100.00,NNE,13,6.0,-999.0,61,0.00,,,-99.99,,2013-03-23 08:52:00,
2013-03-23 02:00:00,48.0,36.0,-100.00,NNW,345,9.0,-999.0,63,0.00,,,-99.99,,2013-03-23 09:00:00,
2013-03-23 02:22:00,48.0,36.0,-100.00,NNW,345,9.0,-999.0,63,0.00,,,-99.99,,2013-03-23 09:22:00,
2013-03-23 02:33:00,48.0,36.0,-100.00,NNW,345,9.0,-999.0,63,0.00,,,-99.99,,2013-03-23 09:33:00,
2013-03-23 02:43:00,48.0,36.0,-100.00,NNW,345,9.0,-999.0,63,0.00,,,-99.99,,2013-03-23 09:43:00,
2013-03-23 02:53:00,48.0,36.0,-100.00,NNW,345,9.0,-999.0,63,0.00,,,-99.99,,2013-03-23 09:53:00,
2013-03-23 03:00:00,46.0,36.0,-100.00,NNW,334,5.0,-999.0,67,0.00,,,-99.99,,2013-03-23 10:00:00,
2013-03-23 03:24:00,46.0,36.0,-100.00,NNW,334,5.0,-999.0,67,0.00,,,-99.99,,2013-03-23 10:24:00,
2013-03-23 03:34:00,46.0,36.0,-100.00,NNW,334,5.0,-999.0,67,0.00,,,-99.99,,2013-03-23 10:34:00,
2013-03-23 03:43:00,46.0,36.0,-100.00,NNW,334,5.0,-999.0,67,0.00,,,-99.99,,2013-03-23 10:43:00,
2013-03-23 03:52:00,46.0,36.0,-100.00,NNW,334,5.0,-999.0,67,0.00,,,-99.99,,2013-03-23 10:52:00,
2013-03-23 04:00:00,46.0,36.0,-100.00,North,355,7.0,-999.0,66,0.00,,,-99.99,,2013-03-23 11:00:00,
2013-03-23 04:22:00,46.0,36.0,-100.00,North,355,7.0,-999.0,66,0.00,,,-99.99,,2013-03-23 11:22:00,
2013-03-23 04:32:00,46.0,36.0,-100.00,North,355,7.0,-999.0,66,0.00,,,-99.99,,2013-03-23 11:32:00,
2013-03-23 05:22:00,46.0,36.0,-100.00,North,349,9.0,-999.0,67,0.00,,,-99.99,,2013-03-23 12:22:00,
2013-03-23 05:33:00,46.0,36.0,-100.00,North,349,9.0,-999.0,67,0.00,,,-99.99,,2013-03-23 12:33:00,
2013-03-23 06:00:00,45.0,36.0,-100.00,NNE,16,6.0,-999.0,70,0.00,,,-99.99,,2013-03-23 13:00:00,
2013-03-23 06:23:00,45.0,36.0,-100.00,NNE,16,6.0,-999.0,70,0.00,,,-99.99,,2013-03-23 13:23:00,
2013-03-23 06:33:00,45.0,36.0,-100.00,NNE,16,6.0,-999.0,70,0.00,,,-99.99,,2013-03-23 13:33:00,
2013-03-23 06:43:00,45.0,36.0,-100.00,NNE,16,6.0,-999.0,70,0.00,,,-99.99,,2013-03-23 13:43:00,
2013-03-23 06:53:00,45.0,36.0,-100.00,NNE,16,6.0,-999.0,70,0.00,,,-99.99,,2013-03-23 13:53:00,
2013-03-23 07:00:00,43.0,35.0,-100.00,NNE,16,7.0,-999.0,72,0.00,,,-99.99,,2013-03-23 14:00:00,
2013-03-23 07:23:00,43.0,35.0,-100.00,NNE,16,7.0,-999.0,72,0.00,,,-99.99,,2013-03-23 14:23:00,
2013-03-23 07:33:00,43.0,35.0,-100.00,NNE,16,7.0,-999.0,72,0.00,,,-99.99,,2013-03-23 14:33:00,
2013-03-23 07:43:00,43.0,35.0,-100.00,NNE,16,7.0,-999.0,72,0.00,,,-99.99,,2013-03-23 14:43:00,
2013-03-23 07:52:00,43.0,35.0,-100.00,NNE,16,7.0,-999.0,72,0.00,,,-99.99,,2013-03-23 14:52:00,
2013-03-23 08:00:00,44.0,35.0,-100.00,NNE,16,7.0,-999.0,72,0.00,,,-99.99,,2013-03-23 15:00:00,
2013-03-23 08:22:00,44.0,35.0,-100.00,NNE,16,7.0,-999.0,72,0.00,,,-99.99,,2013-03-23 15:22:00,
2013-03-23 08:34:00,44.0,35.0,-100.00,NNE,16,7.0,-999.0,72,0.00,,,-99.99,,2013-03-23 15:34:00,
2013-03-23 08:44:00,44.0,35.0,-100.00,NNE,16,7.0,-999.0,72,0.00,,,-99.99,,2013-03-23 15:44:00,
2013-03-23 08:53:00,44.0,35.0,-100.00,NNE,16,7.0,-999.0,72,0.00,,,-99.99,,2013-03-23 15:53:00,
2013-03-23 09:00:00,46.0,37.0,-100.00,NNE,29,4.0,-999.0,70,0.00,,,-99.99,,2013-03-23 16:00:00,
2013-03-23 09:23:00,46.0,37.0,-100.00,NNE,29,4.0,-999.0,70,0.00,,,-99.99,,2013-03-23 16:23:00,
2013-03-23 09:33:00,46.0,37.0,-100.00,NNE,29,4.0,-999.0,70,0.00,,,-99.99,,2013-03-23 16:33:00,
2013-03-23 09:43:00,46.0,37.0,-100.00,NNE,29,4.0,-999.0,70,0.00,,,-99.99,,2013-03-23 16:43:00,
2013-03-23 09:53:00,46.0,37.0,-100.00,NNE,29,4.0,-999.0,70,0.00,,,-99.99,,2013-03-23 16:53:00,
2013-03-23 10:00:00,48.0,35.0,-100.00,North,357,8.0,-999.0,60,0.00,,,-99.99,,2013-03-23 17:00:00,
2013-03-23 10:23:00,48.0,35.0,-100.00,North,357,8.0,-999.0,60,0.00,,,-99.99,,2013-03-23 17:23:00,
2013-03-23 10:33:00,48.0,35.0,-100.00,North,357,8.0,-999.0,60,0.00,,,-99.99,,2013-03-23 17:33:00,
2013-03-23 10:43:00,48.0,35.0,-100.00,North,357,8.0,-999.0,60,0.00,,,-99.99,,2013-03-23 17:43:00,
2013-03-23 10:52:00,48.0,35.0,-100.00,North,357,8.0,-999.0,60,0.00,,,-99.99,,2013-03-23 17:52:00,
2013-03-23 11:00:00,52.0,39.0,-100.00,North,357,8.0,-999.0,62,0.00,,,-99.99,,2013-03-23 18:00:00,
2013-03-23 11:23:00,52.0,39.0,-100.00,North,357,8.0,-999.0,62,0.00,,,-99.99,,2013-03-23 18:23:00,
2013-03-23 11:32:00,52.0,39.0,-100.00,North,357,8.0,-999.0,62,0.00,,,-99.99,,2013-03-23 18:32:00,
2013-03-23 11:43:00,52.0,39.0,-100.00,North,357,8.0,-999.0,62,0.00,,,-99.99,,2013-03-23 18:43:00,
2013-03-23 11:53:00,52.0,39.0,-100.00,North,357,8.0,-999.0,62,0.00,,,-99.99,,2013-03-23 18:53:00,
2013-03-23 12:00:00,56.0,37.0,-100.00,NW,324,2.0,-999.0,49,0.00,,,-99.99,,2013-03-23 19:00:00,
2013-03-23 12:23:00,56.0,37.0,-100.00,NW,324,2.0,-999.0,49,0.00,,,-99.99,,2013-03-23 19:23:00,
2013-03-23 12:33:00,56.0,37.0,-100.00,NW,324,2.0,-999.0,49,0.00,,,-99.99,,2013-03-23 19:33:00,
2013-03-23 12:43:00,56.0,37.0,-100.00,NW,324,2.0,-999.0,49,0.00,,,-99.99,,2013-03-23 19:43:00,
2013-03-23 12:53:00,56.0,37.0,-100.00,NW,324,2.0,-999.0,49,0.00,,,-99.99,,2013-03-23 19:53:00,
2013-03-23 13:00:00,60.0,40.0,-100.00,South,187,7.0,-999.0,46,0.00,,,-99.99,,2013-03-23 20:00:00,
2013-03-23 13:23:00,60.0,40.0,-100.00,South,187,7.0,-999.0,46,0.00,,,-99.99,,2013-03-23 20:23:00,
2013-03-23 13:32:00,60.0,40.0,-100.00,South,187,7.0,-999.0,46,0.00,,,-99.99,,2013-03-23 20:32:00,
2013-03-23 13:43:00,60.0,40.0,-100.00,South,187,7.0,-999.0,46,0.00,,,-99.99,,2013-03-23 20:43:00,
2013-03-23 13:53:00,60.0,40.0,-100.00,South,187,7.0,-999.0,46,0.00,,,-99.99,,2013-03-23 20:53:00,
2013-03-23 14:00:00,63.0,34.0,-100.00,SSE,164,3.0,-999.0,35,0.00,,,-99.99,,2013-03-23 21:00:00,
2013-03-23 14:23:00,63.0,34.0,-100.00,SSE,164,3.0,-999.0,35,0.00,,,-99.99,,2013-03-23 21:23:00,
2013-03-23 14:33:00,63.0,34.0,-100.00,SSE,164,3.0,-999.0,35,0.00,,,-99.99,,2013-03-23 21:33:00,
2013-03-23 14:43:00,63.0,34.0,-100.00,SSE,164,3.0,-999.0,35,0.00,,,-99.99,,2013-03-23 21:43:00,
2013-03-23 14:53:00,63.0,34.0,-100.00,SSE,164,3.0,-999.0,35,0.00,,,-99.99,,2013-03-23 21:53:00,
2013-03-23 15:00:00,60.0,44.0,-100.00,WSW,251,14.0,-999.0,54,0.00,,,-99.99,,2013-03-23 22:00:00,
2013-03-23 15:23:00,60.0,44.0,-100.00,WSW,251,14.0,-999.0,54,0.00,,,-99.99,,2013-03-23 22:23:00,
2013-03-23 15:33:00,60.0,44.0,-100.00,WSW,251,14.0,-999.0,54,0.00,,,-99.99,,2013-03-23 22:33:00,
2013-03-23 15:42:00,60.0,44.0,-100.00,WSW,251,14.0,-999.0,54,0.00,,,-99.99,,2013-03-23 22:42:00,
2013-03-23 15:53:00,60.0,44.0,-100.00,WSW,251,14.0,-999.0,54,0.00,,,-99.99,,2013-03-23 22:53:00,
2013-03-23 16:00:00,58.0,40.0,-100.00,WSW,240,14.0,-999.0,50,0.00,,,-99.99,,2013-03-23 23:00:00,
2013-03-23 16:23:00,58.0,40.0,-100.00,WSW,240,14.0,-999.0,50,0.00,,,-99.99,,2013-03-23 23:23:00,
2013-03-23 16:33:00,58.0,40.0,-100.00,WSW,240,14.0,-999.0,50,0.00,,,-99.99,,2013-03-23 23:33:00,
2013-03-23 16:43:00,58.0,40.0,-100.00,WSW,240,14.0,-999.0,50,0.00,,,-99.99,,2013-03-23 23:43:00,
2013-03-23 16:52:00,58.0,40.0,-100.00,WSW,240,14.0,-999.0,50,0.00,,,-99.99,,2013-03-23 23:52:00,
2013-03-23 17:00:00,59.0,35.0,-100.00,WSW,244,13.0,-999.0,41,0.00,,,-99.99,,2013-03-24 00:00:00,
2013-03-23 17:23:00,59.0,35.0,-100.00,WSW,244,13.0,-999.0,41,0.00,,,-99.99,,2013-03-24 00:23:00,
2013-03-23 17:33:00,59.0,35.0,-100.00,WSW,244,13.0,-999.0,41,0.00,,,-99.99,,2013-03-24 00:33:00,
2013-03-23 17:42:00,59.0,35.0,-100.00,WSW,244,13.0,-999.0,41,0.00,,,-99.99,,2013-03-24 00:42:00,
2013-03-23 17:52:00,59.0,35.0,-100.00,WSW,244,13.0,-999.0,41,0.00,,,-99.99,,2013-03-24 00:52:00,
2013-03-23 18:00:00,57.0,44.0,-100.00,SW,217,13.0,-999.0,61,0.00,,,-99.99,,2013-03-24 01:00:00,
2013-03-23 18:22:00,57.0,44.0,-100.00,SW,217,13.0,-999.0,61,0.00,,,-99.99,,2013-03-24 01:22:00,
2013-03-23 18:33:00,57.0,44.0,-100.00,SW,217,13.0,-999.0,61,0.00,,,-99.99,,2013-03-24 01:33:00,
2013-03-23 18:43:00,57.0,44.0,-100.00,SW,217,13.0,-999.0,61,0.00,,,-99.99,,2013-03-24 01:43:00,
2013-03-23 18:53:00,57.0,44.0,-100.00,SW,217,13.0,-999.0,61,0.00,,,-99.99,,2013-03-24 01:53:00,
2013-03-23 19:00:00,52.0,43.0,-100.00,SW,215,9.0,-999.0,71,0.00,,,-99.99,,2013-03-24 02:00:00,
2013-03-23 19:22:00,52.0,43.0,-100.00,SW,215,9.0,-999.0,71,0.00,,,-99.99,,2013-03-24 02:22:00,
2013-03-23 19:32:00,52.0,43.0,-100.00,SW,215,9.0,-999.0,71,0.00,,,-99.99,,2013-03-24 02:32:00,
2013-03-23 19:42:00,52.0,43.0,-100.00,SW,215,9.0,-999.0,71,0.00,,,-99.99,,2013-03-24 02:42:00,
2013-03-23 19:52:00,52.0,43.0,-100.00,SW,215,9.0,-999.0,71,0.00,,,-99.99,,2013-03-24 02:52:00,
2013-03-23 20:00:00,48.0,42.0,-100.00,SW,216,8.0,-999.0,79,0.00,,,-99.99,,2013-03-24 03:00:00,
2013-03-23 20:23:00,48.0,42.0,-100.00,SW,216,8.0,-999.0,79,0.00,,,-99.99,,2013-03-24 03:23:00,
2013-03-23 20:33:00,48.0,42.0,-100.00,SW,216,8.0,-999.0,79,0.00,,,-99.99,,2013-03-24 03:33:00,
2013-03-23 20:43:00,48.0,42.0,-100.00,SW,216,8.0,-999.0,79,0.00,,,-99.99,,2013-03-24 03:43:00,
2013-03-23 20:53:00,48.0,42.0,-100.00,SW,216,8.0,-999.0,79,0.00,,,-99.99,,2013-03-24 03:53:00,
2013-03-23 21:00:00,47.0,41.0,-100.00,SW,229,6.0,-999.0,80,0.00,,,-99.99,,2013-03-24 04:00:00,
2013-03-23 21:23:00,47.0,41.0,-100.00,SW,229,6.0,-999.0,80,0.00,,,-99.99,,2013-03-24 04:23:00,
2013-03-23 21:33:00,47.0,41.0,-100.00,SW,229,6.0,-999.0,80,0.00,,,-99.99,,2013-03-24 04:33:00,
2013-03-23 21:43:00,47.0,41.0,-100.00,SW,229,6.0,-999.0,80,0.00,,,-99.99,,2013-03-24 04:43:00,
2013-03-23 21:53:00,47.0,41.0,-100.00,SW,229,6.0,-999.0,80,0.00,,,-99.99,,2013-03-24 04:53:00,
2013-03-23 22:00:00,46.0,42.0,-100.00,SW,222,5.0,-999.0,84,0.00,,,-99.99,,2013-03-24 05:00:00,
2013-03-23 22:23:00,46.0,42.0,-100.00,SW,222,5.0,-999.0,84,0.00,,,-99.99,,2013-03-24 05:23:00,
2013-03-23 22:32:00,46.0,42.0,-100.00,SW,222,5.0,-999.0,84,0.00,,,-99.99,,2013-03-24 05:32:00,
2013-03-23 22:43:00,46.0,42.0,-100.00,SW,222,5.0,-999.0,84,0.00,,,-99.99,,2013-03-24 05:43:00,
2013-03-23 22:52:00,46.0,42.0,-100.00,SW,222,5.0,-999.0,84,0.00,,,-99.99,,2013-03-24 05:52:00,
2013-03-23 23:00:00,47.0,42.0,-100.00,West,269,4.0,-999.0,84,0.00,,,-99.99,,2013-03-24 06:00:00,
2013-03-23 23:22:00,47.0,42.0,-100.00,West,269,4.0,-999.0,84,0.00,,,-99.99,,2013-03-24 06:22:00,
2013-03-23 23:32:00,47.0,42.0,-100.00,West,269,4.0,-999.0,84,0.00,,,-99.99,,2013-03-24 06:32:00,
2013-03-23 23:42:00,47.0,42.0,-100.00,West,269,4.0,-999.0,84,0.00,,,-99.99,,2013-03-24 06:42:00,
2013-03-23 23:52:00,47.0,42.0,-100.00,West,269,4.0,-999.0,84,0.00,,,-99.99,,2013-03-24 06:52:00,